User: anonymous   Login
Location: Unspecified
(0.0000°N, 0.0000°E)
Time: 16:13:17
(UTC+00:00)
Language:

METEOR-M - Orbit

View from above orbital plane
View from above orbital plane
View from above satellite
View from above satellite

Ground track
Ground track

The orbit data is extracted from the following two-line orbital elements,

1 35865U 09049A   16339.07365734  .00000008  00000-0  22490-4 0  9995
2 35865  98.4397   3.3058 0002560  24.0042 336.1256 14.22089531374367
Epoch (UTC): 04 December 2016 01:46:03
Eccentricity: 0.0002560
inclination: 98.4397°
perigee height: 816 km
apogee height: 820 km
right ascension of ascending node: 3.3058°
argument of perigee: 24.0042°
revolutions per day: 14.22089531
mean anomaly at epoch: 336.1256°
orbit number at epoch: 37436

The dashed part of the orbit path shows where the satellite is in the earth's shadow,  

DLR